GFSGL_sfc_vis_057.txt.gz
Visibility
15.0 15.0 15.0 15.0 15.0 15.0 15.0 15.0 15.0 15.0 15.0 15.0 15.0 15.0 15.0 15.0 15.0 15.0 15.0 15.0 15.0 15.0 15.0 15.0 15.0 15.0 15.0 15.0 15.0 15.0 15.0 15.0 13.1 9.3 13.9 15.0 15.0 15.0 6.9 15.0 12.2 7.6 8.1
15.0 15.0 15.0 15.0 15.0 15.0 15.0 15.0 15.0 15.0 15.0 15.0 15.0 15.0 15.0 15.0 15.0 15.0 15.0 15.0 15.0 15.0 15.0 15.0 15.0 15.0 15.0 15.0 15.0 3.0 15.0 15.0 15.0 15.0 15.0 15.0 15.0 15.0 12.7 15.0 15.0 14.3 4.0
15.0 15.0 15.0 15.0 15.0 15.0 15.0 15.0 15.0 15.0 15.0 15.0 15.0 15.0 15.0 15.0 15.0 15.0 15.0 15.0 15.0 15.0 15.0 15.0 15.0 15.0 7.7 15.0 13.8 6.3 15.0 15.0 15.0 15.0 12.2 15.0 15.0 15.0 15.0 15.0 5.0 15.0 12.9
15.0 15.0 15.0 15.0 15.0 15.0 15.0 15.0 15.0 15.0 15.0 15.0 15.0 15.0 15.0 15.0 15.0 15.0 15.0 15.0 15.0 15.0 15.0 15.0 15.0 15.0 15.0 4.7 15.0 15.0 15.0 15.0 15.0 7.6 4.9 15.0 15.0 15.0 15.0 15.0 9.8 7.2 10.9
15.0 15.0 15.0 15.0 15.0 15.0 15.0 15.0 15.0 15.0 15.0 15.0 15.0 15.0 15.0 15.0 15.0 15.0 15.0 15.0 15.0 15.0 15.0 15.0 11.1 15.0 15.0 15.0 15.0 15.0 15.0 15.0 11.0 4.9 9.1 12.2 15.0 15.0 15.0 15.0 13.8 12.7 15.0
15.0 15.0 15.0 15.0 15.0 15.0 15.0 15.0 15.0 15.0 15.0 15.0 15.0 15.0 15.0 15.0 15.0 15.0 15.0 15.0 15.0 15.0 15.0 15.0 15.0 11.1 0.2 15.0 15.0 15.0 15.0 4.1 4.3 13.5 15.0 15.0 15.0 15.0 13.3 15.0 7.6 15.0 7.2
15.0 15.0 15.0 15.0 15.0 15.0 15.0 15.0 15.0 15.0 15.0 15.0 15.0 15.0 15.0 15.0 15.0 15.0 15.0 15.0 15.0 15.0 15.0 5.0 8.9 15.0 15.0 15.0 2.1 2.6 10.1 15.0 15.0 7.5 12.5 9.3 15.0 15.0 15.0 10.0 15.0 12.5 7.8
15.0 15.0 15.0 15.0 15.0 15.0 15.0 15.0 15.0 15.0 15.0 15.0 15.0 15.0 15.0 14.0 15.0 15.0 15.0 15.0 15.0 15.0 9.1 15.0 12.5 13.7 15.0 15.0 15.0 15.0 15.0 15.0 11.1 15.0 15.0 15.0 15.0 15.0 10.7 4.8 12.0 4.6 7.1
15.0 15.0 15.0 15.0 15.0 15.0 15.0 15.0 15.0 15.0 15.0 15.0 15.0 6.9 14.6 14.1 0.0 15.0 12.7 15.0 10.6 15.0 15.0 15.0 15.0 15.0 0.6 0.2 15.0 15.0 6.9 14.0 0.1 0.0 2.9 9.4 15.0 15.0 15.0 8.1 7.2 10.1 6.7
15.0 15.0 15.0 15.0 15.0 15.0 15.0 15.0 7.2 10.4 6.8 2.8 2.6 15.0 3.2 15.0 0.0 15.0 1.0 15.0 15.0 15.0 15.0 15.0 0.3 10.0 0.0 0.0 9.2 5.3 4.9 7.6 15.0 15.0 15.0 1.4 10.4 2.3 13.7 4.2 7.8 8.0 15.0
15.0 15.0 15.0 15.0 12.9 15.0 15.0 14.6 6.0 10.6 13.7 6.4 13.1 15.0 15.0 15.0 10.0 0.0 0.0 15.0 15.0 15.0 15.0 8.1 15.0 0.0 0.0 0.0 0.0 3.6 2.4 3.9 15.0 11.6 15.0 15.0 15.0 15.0 15.0 12.1 9.1 15.0 15.0
15.0 15.0 15.0 15.0 7.1 15.0 9.6 10.7 15.0 9.9 11.4 15.0 14.2 15.0 15.0 15.0 5.7 0.0 0.0 0.3 15.0 15.0 15.0 15.0 8.1 0.0 0.0 0.0 0.0 0.0 0.0 0.1 5.0 4.3 9.2 12.4 15.0 15.0 15.0 15.0 11.0 15.0 15.0
4.4 9.7 15.0 15.0 14.0 5.2 10.5 2.9 11.1 1.6 15.0 13.8 15.0 15.0 15.0 15.0 14.5 0.0 0.0 0.0 0.6 0.6 15.0 1.3 0.0 0.0 0.0 0.1 0.0 0.0 0.0 13.9 4.3 5.2 6.2 8.1 11.6 15.0 15.0 15.0 14.8 7.1 11.9
15.0 15.0 15.0 11.9 12.8 10.5 12.9 1.5 15.0 14.1 3.7 15.0 15.0 15.0 15.0 15.0 15.0 15.0 15.0 13.4 1.2 15.0 2.5 2.6 12.6 0.1 0.2 9.3 1.4 2.5 15.0 15.0 13.2 14.8 9.5 8.0 15.0 15.0 15.0 8.0 15.0 14.8 14.8
15.0 15.0 14.0 6.5 8.0 4.4 1.3 8.1 8.1 3.0 13.3 15.0 15.0 12.3 15.0 15.0 12.9 15.0 15.0 15.0 15.0 1.4 15.0 15.0 15.0 15.0 15.0 15.0 15.0 15.0 4.8 13.6 15.0 10.9 15.0 15.0 15.0 15.0 15.0 15.0 15.0 15.0 15.0
7.9 4.0 14.0 2.2 2.3 12.7 15.0 3.9 0.0 0.0 3.8 8.1 15.0 15.0 15.0 0.1 0.1 15.0 4.0 0.1 5.3 0.5 14.7 15.0 15.0 11.4 15.0 11.2 7.7 9.4 15.0 15.0 15.0 15.0 15.0 15.0 15.0 15.0 15.0 15.0 15.0 15.0 14.4
14.3 2.8 3.4 12.8 13.5 15.0 3.8 5.1 3.6 0.2 0.0 0.0 0.1 0.8 0.6 0.1 0.0 0.0 0.0 0.0 0.0 0.0 14.8 6.7 8.5 7.8 8.5 14.8 15.0 15.0 15.0 15.0 15.0 15.0 15.0 15.0 15.0 15.0 3.9 15.0 15.0 15.0 15.0
1.6 1.2 12.4 15.0 15.0 15.0 15.0 15.0 14.9 15.0 15.0 15.0 0.1 0.2 0.0 0.0 0.0 0.0 0.0 3.5 10.4 7.4 9.8 15.0 15.0 9.2 15.0 15.0 15.0 15.0 15.0 15.0 15.0 15.0 15.0 15.0 15.0 15.0 15.0 15.0 15.0 15.0 15.0
9.4 15.0 15.0 15.0 9.5 11.5 15.0 15.0 15.0 15.0 15.0 8.3 0.4 0.1 0.1 0.0 0.0 0.0 0.0 15.0 15.0 15.0 15.0 11.2 15.0 15.0 15.0 15.0 15.0 15.0 15.0 15.0 15.0 15.0 15.0 14.8 15.0 12.1 15.0 15.0 9.8 0.0 0.1
14.3 0.8 14.1 15.0 12.5 3.1 12.1 14.9 15.0 15.0 15.0 15.0 0.2 0.0 0.1 10.9 14.0 15.0 9.6 15.0 15.0 12.4 15.0 15.0 15.0 15.0 15.0 15.0 15.0 15.0 15.0 11.8 15.0 12.9 14.3 15.0 15.0 15.0 15.0 12.7 15.0 10.0 15.0
15.0 15.0 14.8 7.5 9.2 6.0 15.0 15.0 15.0 15.0 15.0 15.0 15.0 7.1 0.0 15.0 15.0 15.0 15.0 15.0 8.6 15.0 15.0 15.0 15.0 15.0 15.0 15.0 15.0 14.9 14.6 14.9 8.6 14.6 14.8 15.0 15.0 15.0 15.0 15.0 15.0 15.0 10.7
3.2 8.1 9.1 15.0 13.5 13.6 13.7 15.0 15.0 15.0 15.0 15.0 15.0 9.5 15.0 15.0 15.0 15.0 15.0 15.0 15.0 15.0 15.0 15.0 15.0 15.0 15.0 15.0 12.9 10.7 15.0 10.5 13.9 11.7 14.4 15.0 15.0 15.0 5.9 6.4 6.5 5.6 6.4
9.9 15.0 15.0 15.0 15.0 1.3 13.1 15.0 15.0 15.0 15.0 15.0 15.0 15.0 15.0 15.0 15.0 15.0 15.0 15.0 15.0 15.0 15.0 15.0 15.0 15.0 15.0 15.0 15.0 14.2 15.0 15.0 15.0 9.2 4.2 4.1 4.9 10.6 15.0 15.0 15.0 15.0 15.0
6.4 4.7 15.0 15.0 15.0 15.0 15.0 15.0 15.0 9.2 15.0 15.0 15.0 15.0 15.0 15.0 15.0 15.0 15.0 15.0 15.0 15.0 15.0 15.0 15.0 15.0 15.0 15.0 15.0 15.0 15.0 15.0 15.0 15.0 14.4 15.0 15.0 15.0 15.0 15.0 15.0 15.0 15.0
15.0 15.0 15.0 15.0 15.0 15.0 15.0 10.3 15.0 15.0 15.0 15.0 15.0 15.0 15.0 15.0 15.0 15.0 15.0 15.0 15.0 15.0 15.0 15.0 15.0 15.0 15.0 15.0 15.0 15.0 15.0 15.0 15.0 14.8 15.0 15.0 15.0 15.0 15.0 15.0 15.0 15.0 15.0
15.0 15.0 15.0 15.0 15.0 15.0 15.0 15.0 15.0 15.0 15.0 15.0 15.0 15.0 15.0 15.0 15.0 15.0 15.0 15.0 15.0 15.0 15.0 15.0 15.0 15.0 15.0 15.0 15.0 15.0 15.0 15.0 15.0 15.0 15.0 15.0 15.0 15.0 15.0 15.0 15.0 15.0 15.0

GFSGL_sfc_vis_060.txt.gz
Visibility
15.0 15.0 15.0 15.0 15.0 15.0 15.0 15.0 15.0 15.0 15.0 15.0 15.0 15.0 15.0 10.8 15.0 15.0 15.0 15.0 15.0 15.0 15.0 15.0 15.0 15.0 15.0 15.0 15.0 15.0 15.0 15.0 15.0 15.0 15.0 15.0 15.0 15.0 15.0 15.0 15.0 15.0 5.5
15.0 15.0 15.0 15.0 15.0 15.0 15.0 15.0 15.0 15.0 15.0 15.0 15.0 15.0 15.0 15.0 15.0 15.0 15.0 15.0 15.0 15.0 15.0 15.0 15.0 15.0 15.0 15.0 15.0 15.0 15.0 15.0 15.0 15.0 15.0 15.0 15.0 15.0 15.0 15.0 15.0 14.4 11.6
15.0 15.0 15.0 15.0 15.0 15.0 15.0 15.0 15.0 15.0 15.0 15.0 15.0 15.0 15.0 15.0 15.0 15.0 15.0 15.0 15.0 15.0 15.0 15.0 15.0 15.0 15.0 15.0 15.0 15.0 15.0 15.0 15.0 15.0 15.0 15.0 15.0 15.0 15.0 15.0 15.0 15.0 15.0
15.0 15.0 15.0 15.0 15.0 15.0 15.0 15.0 15.0 15.0 15.0 15.0 15.0 15.0 15.0 15.0 15.0 15.0 15.0 15.0 15.0 15.0 15.0 15.0 15.0 15.0 15.0 15.0 15.0 15.0 15.0 15.0 15.0 15.0 15.0 15.0 15.0 15.0 15.0 15.0 15.0 11.0 15.0
15.0 15.0 15.0 15.0 15.0 15.0 15.0 15.0 15.0 15.0 15.0 15.0 15.0 15.0 15.0 15.0 15.0 15.0 15.0 15.0 15.0 15.0 15.0 15.0 15.0 15.0 15.0 15.0 15.0 15.0 15.0 15.0 15.0 15.0 15.0 15.0 15.0 15.0 15.0 15.0 15.0 15.0 15.0
15.0 15.0 15.0 15.0 15.0 15.0 15.0 15.0 15.0 15.0 15.0 15.0 15.0 15.0 15.0 15.0 15.0 15.0 15.0 15.0 15.0 15.0 15.0 15.0 15.0 15.0 15.0 15.0 15.0 15.0 3.8 15.0 15.0 15.0 15.0 15.0 15.0 15.0 15.0 15.0 15.0 15.0 15.0
15.0 15.0 15.0 15.0 15.0 15.0 15.0 15.0 15.0 15.0 15.0 15.0 15.0 15.0 15.0 15.0 15.0 15.0 15.0 6.7 15.0 15.0 11.6 15.0 15.0 15.0 15.0 15.0 2.2 5.3 10.2 15.0 15.0 15.0 15.0 15.0 15.0 15.0 15.0 15.0 15.0 15.0 15.0
15.0 15.0 15.0 15.0 15.0 15.0 15.0 15.0 15.0 15.0 15.0 15.0 15.0 15.0 15.0 14.0 15.0 15.0 15.0 15.0 8.5 12.6 15.0 15.0 15.0 15.0 15.0 15.0 15.0 15.0 15.0 15.0 11.4 15.0 15.0 15.0 15.0 15.0 15.0 15.0 15.0 15.0 11.7
15.0 15.0 15.0 15.0 15.0 15.0 15.0 15.0 15.0 15.0 15.0 15.0 15.0 12.8 15.0 14.1 5.4 15.0 15.0 15.0 10.8 15.0 15.0 15.0 15.0 15.0 15.0 7.1 15.0 15.0 15.0 15.0 0.1 0.1 0.0 15.0 15.0 15.0 15.0 15.0 15.0 15.0 11.7
15.0 15.0 15.0 15.0 15.0 15.0 15.0 15.0 15.0 12.0 14.9 15.0 11.8 15.0 1.0 15.0 0.0 15.0 15.0 15.0 15.0 15.0 15.0 15.0 0.3 15.0 0.1 0.0 14.4 15.0 15.0 15.0 15.0 15.0 15.0 1.4 10.4 2.3 13.7 7.8 7.2 5.6 15.0
15.0 15.0 15.0 15.0 15.0 15.0 15.0 15.0 5.7 9.5 10.9 12.0 15.0 3.2 15.0 7.1 6.5 0.0 0.2 15.0 15.0 15.0 15.0 15.0 15.0 0.0 0.0 0.0 0.0 15.0 9.7 6.4 15.0 15.0 15.0 15.0 15.0 15.0 15.0 15.0 11.3 9.5 15.0
15.0 15.0 15.0 15.0 15.0 15.0 15.0 15.0 12.0 12.9 15.0 8.1 7.6 9.1 11.3 14.5 0.0 0.0 5.9 14.5 15.0 15.0 15.0 15.0 0.6 0.0 0.0 0.0 0.0 0.0 0.0 0.0 10.9 15.0 15.0 15.0 15.0 15.0 15.0 15.0 15.0 11.7 15.0
15.0 15.0 15.0 15.0 15.0 15.0 15.0 15.0 15.0 5.8 3.9 15.0 11.6 13.8 4.0 2.8 0.1 0.0 0.0 3.7 15.0 15.0 15.0 1.3 0.0 0.0 0.0 0.0 0.0 0.0 0.0 8.5 7.8 5.5 3.9 15.0 15.0 15.0 15.0 15.0 15.0 6.1 14.1
15.0 15.0 15.0 15.0 15.0 15.0 15.0 15.0 9.2 3.7 4.8 12.8 2.2 4.9 13.0 13.2 15.0 15.0 4.6 13.4 1.4 0.1 2.5 2.1 12.6 0.1 0.1 0.4 1.4 2.5 14.0 11.2 5.7 4.4 3.1 4.8 4.9 15.0 15.0 15.0 15.0 15.0 15.0
15.0 11.0 13.2 14.6 15.0 15.0 15.0 4.9 8.4 12.4 1.8 1.5 1.9 2.5 15.0 15.0 15.0 15.0 15.0 15.0 15.0 1.4 15.0 15.0 15.0 15.0 15.0 15.0 15.0 12.2 10.2 15.0 15.0 15.0 12.9 15.0 15.0 15.0 15.0 15.0 15.0 15.0 15.0
15.0 15.0 15.0 15.0 13.2 11.1 3.5 0.1 0.0 0.5 0.1 11.2 15.0 13.3 15.0 14.1 12.6 12.2 15.0 15.0 15.0 15.0 15.0 15.0 15.0 15.0 15.0 15.0 15.0 7.3 6.3 15.0 15.0 15.0 12.6 15.0 15.0 15.0 15.0 15.0 15.0 15.0 15.0
15.0 15.0 15.0 0.5 4.3 1.3 3.8 5.4 0.7 0.1 0.1 0.1 5.0 1.0 0.6 0.2 0.0 0.0 4.0 0.7 0.4 0.1 15.0 15.0 15.0 15.0 15.0 15.0 5.9 7.9 15.0 15.0 15.0 15.0 15.0 15.0 15.0 15.0 4.7 15.0 15.0 15.0 15.0
15.0 0.3 13.4 3.4 2.6 1.4 2.5 1.2 8.3 11.6 15.0 11.2 0.0 0.1 0.0 0.0 0.0 0.0 0.0 3.8 10.4 7.4 15.0 15.0 14.1 15.0 13.0 13.9 15.0 15.0 15.0 15.0 15.0 15.0 15.0 15.0 15.0 15.0 15.0 15.0 15.0 15.0 15.0
15.0 8.3 1.2 1.7 1.4 3.3 9.3 9.0 4.6 13.1 10.1 0.1 0.2 0.0 0.0 0.0 0.0 0.0 0.1 15.0 15.0 15.0 15.0 15.0 15.0 11.2 15.0 15.0 15.0 15.0 15.0 15.0 15.0 15.0 15.0 15.0 15.0 15.0 15.0 15.0 9.7 0.0 0.1
1.1 0.9 4.7 5.3 15.0 8.1 10.7 8.2 9.2 12.1 15.0 15.0 0.2 0.1 0.2 11.6 15.0 15.0 15.0 15.0 15.0 15.0 15.0 15.0 15.0 15.0 15.0 15.0 15.0 15.0 15.0 13.0 15.0 15.0 15.0 15.0 15.0 15.0 15.0 15.0 15.0 15.0 15.0
15.0 15.0 14.8 15.0 15.0 15.0 15.0 15.0 15.0 15.0 15.0 0.4 0.7 0.1 0.1 15.0 15.0 15.0 15.0 15.0 15.0 15.0 15.0 15.0 15.0 15.0 15.0 15.0 15.0 15.0 15.0 15.0 15.0 8.8 15.0 15.0 15.0 15.0 14.0 15.0 15.0 14.9 15.0
13.1 15.0 15.0 15.0 15.0 15.0 15.0 15.0 15.0 15.0 15.0 5.6 15.0 9.6 15.0 15.0 15.0 15.0 15.0 15.0 15.0 7.7 8.1 15.0 15.0 15.0 15.0 15.0 15.0 15.0 6.2 9.6 14.3 13.2 15.0 15.0 15.0 12.5 8.1 15.0 15.0 15.0 15.0
3.9 12.6 15.0 15.0 15.0 15.0 15.0 15.0 15.0 15.0 15.0 15.0 15.0 15.0 15.0 15.0 15.0 15.0 15.0 10.7 13.3 15.0 15.0 15.0 15.0 15.0 15.0 15.0 15.0 15.0 15.0 15.0 15.0 15.0 15.0 15.0 12.3 15.0 15.0 15.0 15.0 15.0 15.0
11.1 15.0 15.0 15.0 15.0 15.0 15.0 15.0 15.0 3.8 15.0 15.0 15.0 15.0 15.0 15.0 15.0 15.0 15.0 15.0 15.0 15.0 15.0 15.0 15.0 15.0 15.0 15.0 15.0 15.0 15.0 15.0 15.0 15.0 15.0 15.0 15.0 15.0 15.0 15.0 15.0 15.0 15.0
15.0 15.0 15.0 15.0 15.0 15.0 15.0 15.0 15.0 15.0 15.0 15.0 15.0 15.0 15.0 15.0 15.0 15.0 15.0 15.0 15.0 15.0 15.0 15.0 15.0 15.0 15.0 15.0 15.0 15.0 15.0 15.0 15.0 15.0 15.0 15.0 15.0 15.0 15.0 15.0 15.0 15.0 15.0
15.0 15.0 15.0 15.0 15.0 15.0 15.0 15.0 15.0 15.0 15.0 15.0 15.0 15.0 15.0 15.0 15.0 15.0 15.0 15.0 15.0 15.0 15.0 15.0 15.0 15.0 15.0 15.0 15.0 15.0 15.0 15.0 15.0 15.0 15.0 15.0 15.0 15.0 15.0 15.0 15.0 15.0 15.0

GFSGL_sfc_vis_063.txt.gz
Visibility
15.0 15.0 15.0 15.0 15.0 15.0 15.0 15.0 15.0 15.0 15.0 15.0 15.0 15.0 15.0 15.0 15.0 13.3 13.9 15.0 15.0 15.0 15.0 15.0 15.0 8.1 15.0 15.0 15.0 8.6 15.0 15.0 15.0 15.0 15.0 15.0 15.0 15.0 15.0 15.0 15.0 15.0 15.0
15.0 15.0 15.0 15.0 15.0 15.0 15.0 15.0 15.0 15.0 15.0 15.0 15.0 15.0 15.0 15.0 15.0 15.0 15.0 15.0 15.0 15.0 15.0 15.0 15.0 15.0 15.0 15.0 14.3 15.0 14.3 15.0 15.0 15.0 15.0 15.0 15.0 15.0 15.0 15.0 15.0 15.0 15.0
15.0 15.0 15.0 15.0 15.0 15.0 15.0 15.0 15.0 15.0 15.0 15.0 15.0 15.0 15.0 15.0 15.0 15.0 15.0 15.0 15.0 15.0 15.0 14.5 13.7 15.0 15.0 14.3 5.5 15.0 15.0 15.0 15.0 15.0 15.0 15.0 15.0 15.0 15.0 15.0 15.0 15.0 14.8
15.0 15.0 15.0 15.0 15.0 15.0 15.0 15.0 15.0 15.0 15.0 15.0 15.0 15.0 15.0 15.0 15.0 15.0 15.0 15.0 15.0 15.0 15.0 15.0 11.8 10.3 15.0 2.2 15.0 15.0 15.0 15.0 15.0 15.0 15.0 15.0 15.0 15.0 15.0 15.0 15.0 15.0 15.0
15.0 15.0 15.0 15.0 15.0 15.0 15.0 15.0 15.0 15.0 15.0 15.0 15.0 15.0 15.0 15.0 15.0 15.0 15.0 15.0 15.0 11.7 15.0 15.0 15.0 14.1 15.0 12.5 15.0 15.0 15.0 15.0 15.0 15.0 15.0 15.0 15.0 14.8 15.0 15.0 15.0 15.0 15.0
15.0 15.0 15.0 15.0 15.0 15.0 15.0 15.0 15.0 15.0 15.0 15.0 15.0 15.0 15.0 15.0 15.0 15.0 15.0 15.0 10.0 10.8 15.0 15.0 9.1 15.0 15.0 15.0 15.0 15.0 15.0 15.0 15.0 15.0 15.0 15.0 15.0 15.0 15.0 15.0 15.0 15.0 15.0
15.0 15.0 15.0 15.0 15.0 15.0 15.0 15.0 15.0 15.0 15.0 15.0 15.0 15.0 15.0 15.0 15.0 15.0 15.0 14.5 7.7 15.0 15.0 15.0 15.0 11.4 15.0 12.6 15.0 15.0 15.0 15.0 15.0 15.0 15.0 15.0 15.0 15.0 15.0 15.0 15.0 15.0 15.0
15.0 15.0 15.0 15.0 15.0 15.0 15.0 15.0 15.0 15.0 15.0 15.0 15.0 15.0 15.0 15.0 15.0 15.0 15.0 3.3 15.0 15.0 15.0 9.2 5.3 9.2 15.0 10.9 15.0 15.0 15.0 15.0 15.0 15.0 15.0 15.0 15.0 15.0 15.0 15.0 15.0 15.0 15.0
15.0 15.0 15.0 15.0 15.0 15.0 15.0 15.0 15.0 15.0 15.0 15.0 15.0 15.0 15.0 14.9 0.2 15.0 5.9 13.0 7.3 11.3 14.4 15.0 3.7 15.0 10.7 15.0 9.5 15.0 15.0 12.4 0.1 0.0 0.1 15.0 0.2 0.9 15.0 15.0 15.0 15.0 15.0
15.0 15.0 15.0 15.0 15.0 15.0 15.0 15.0 15.0 15.0 15.0 15.0 15.0 15.0 15.0 15.0 0.0 13.7 0.1 15.0 15.0 2.7 13.1 14.1 15.0 2.6 0.3 0.0 15.0 15.0 15.0 15.0 15.0 15.0 9.3 1.4 10.4 0.3 0.0 7.9 15.0 15.0 15.0
15.0 15.0 15.0 15.0 15.0 15.0 15.0 15.0 15.0 15.0 15.0 15.0 15.0 15.0 15.0 15.0 6.5 0.0 0.1 6.3 8.1 15.0 14.1 15.0 12.6 0.0 1.3 0.0 0.1 15.0 9.7 11.5 5.6 15.0 15.0 15.0 15.0 15.0 15.0 15.0 15.0 12.8 15.0
15.0 15.0 15.0 15.0 15.0 15.0 15.0 15.0 15.0 15.0 14.0 15.0 15.0 15.0 15.0 0.4 0.0 0.0 0.2 15.0 0.8 11.7 15.0 15.0 0.1 0.0 0.0 0.0 0.0 0.0 0.0 0.1 15.0 15.0 15.0 15.0 15.0 15.0 15.0 15.0 15.0 15.0 15.0
15.0 15.0 15.0 15.0 15.0 15.0 15.0 15.0 15.0 15.0 15.0 15.0 15.0 15.0 3.2 0.1 0.0 0.0 0.1 14.8 14.2 15.0 15.0 1.3 0.0 0.0 0.0 0.0 0.0 0.0 0.0 13.9 15.0 15.0 15.0 15.0 15.0 15.0 15.0 15.0 15.0 15.0 15.0
15.0 15.0 15.0 15.0 15.0 15.0 15.0 15.0 15.0 15.0 15.0 15.0 15.0 15.0 0.2 0.1 0.7 9.1 0.5 0.6 0.2 0.0 0.0 0.0 0.1 0.1 0.1 0.0 0.1 0.1 14.9 10.8 5.2 10.8 15.0 15.0 12.8 7.9 15.0 15.0 15.0 15.0 15.0
15.0 15.0 15.0 15.0 15.0 15.0 15.0 15.0 15.0 15.0 15.0 15.0 15.0 10.3 0.4 2.4 8.8 4.3 9.4 15.0 15.0 0.4 6.1 6.6 15.0 15.0 15.0 15.0 15.0 15.0 15.0 11.7 15.0 15.0 15.0 14.1 6.5 14.7 15.0 15.0 15.0 15.0 15.0
15.0 15.0 15.0 15.0 15.0 15.0 15.0 15.0 0.0 0.0 0.1 0.2 4.8 2.6 2.5 4.3 0.1 6.0 7.0 0.1 0.1 7.9 15.0 15.0 15.0 15.0 15.0 15.0 15.0 15.0 15.0 15.0 15.0 15.0 15.0 15.0 15.0 15.0 15.0 15.0 15.0 15.0 15.0
15.0 15.0 15.0 15.0 15.0 15.0 15.0 15.0 15.0 0.1 0.0 0.0 0.1 0.1 0.9 0.2 0.2 0.4 0.3 0.3 0.1 0.2 15.0 15.0 15.0 15.0 15.0 15.0 15.0 15.0 15.0 15.0 15.0 15.0 15.0 15.0 15.0 15.0 14.7 15.0 15.0 15.0 15.0
14.9 13.3 15.0 15.0 15.0 15.0 15.0 15.0 15.0 2.5 1.8 0.2 0.1 0.1 0.0 0.0 0.1 0.1 0.0 3.6 3.6 7.4 15.0 15.0 15.0 15.0 15.0 15.0 15.0 15.0 15.0 15.0 15.0 15.0 15.0 15.0 15.0 15.0 15.0 15.0 15.0 15.0 15.0
15.0 15.0 15.0 14.8 15.0 15.0 4.9 2.9 4.3 1.6 0.2 0.1 0.1 0.0 0.0 0.0 0.0 0.0 8.2 15.0 15.0 15.0 15.0 15.0 15.0 15.0 15.0 15.0 15.0 15.0 15.0 15.0 15.0 15.0 15.0 15.0 15.0 15.0 15.0 15.0 9.7 0.0 0.1
15.0 1.1 3.4 12.0 1.9 5.4 4.9 2.9 1.2 1.9 10.0 15.0 0.6 0.1 0.6 12.0 15.0 15.0 15.0 15.0 15.0 15.0 15.0 15.0 15.0 15.0 15.0 15.0 15.0 15.0 15.0 12.0 15.0 15.0 15.0 15.0 15.0 15.0 15.0 15.0 15.0 15.0 15.0
7.3 14.6 0.7 13.1 2.3 5.6 3.1 8.3 4.1 9.7 0.8 14.4 0.7 0.1 0.0 15.0 15.0 15.0 15.0 15.0 15.0 15.0 15.0 15.0 15.0 15.0 15.0 15.0 15.0 15.0 15.0 15.0 15.0 15.0 15.0 15.0 15.0 15.0 15.0 15.0 15.0 15.0 15.0
1.5 7.7 2.9 3.3 13.1 8.8 6.1 7.2 6.6 15.0 15.0 15.0 7.4 0.3 0.1 15.0 15.0 15.0 10.9 15.0 15.0 15.0 15.0 15.0 15.0 15.0 15.0 15.0 15.0 15.0 15.0 15.0 15.0 15.0 15.0 15.0 15.0 15.0 15.0 15.0 15.0 15.0 15.0
14.5 10.9 4.1 4.5 3.3 0.3 5.1 8.9 15.0 15.0 15.0 15.0 15.0 15.0 15.0 15.0 15.0 15.0 15.0 15.0 15.0 15.0 15.0 15.0 15.0 15.0 15.0 15.0 15.0 15.0 15.0 15.0 15.0 15.0 15.0 15.0 15.0 15.0 15.0 15.0 15.0 15.0 15.0
14.5 5.2 6.2 15.0 10.4 15.0 15.0 15.0 15.0 3.0 15.0 15.0 15.0 15.0 15.0 15.0 15.0 15.0 15.0 15.0 15.0 13.6 15.0 15.0 15.0 15.0 15.0 15.0 15.0 15.0 15.0 15.0 15.0 15.0 15.0 15.0 15.0 15.0 15.0 15.0 15.0 15.0 15.0
15.0 15.0 15.0 15.0 15.0 15.0 15.0 15.0 15.0 15.0 15.0 15.0 15.0 15.0 15.0 15.0 15.0 15.0 12.2 15.0 15.0 15.0 15.0 15.0 15.0 15.0 15.0 15.0 15.0 15.0 15.0 15.0 14.5 15.0 15.0 15.0 15.0 15.0 15.0 15.0 15.0 15.0 15.0
15.0 15.0 15.0 15.0 15.0 15.0 15.0 15.0 15.0 15.0 15.0 15.0 15.0 15.0 15.0 15.0 15.0 15.0 15.0 15.0 15.0 15.0 15.0 15.0 15.0 15.0 15.0 15.0 15.0 15.0 15.0 15.0 15.0 15.0 15.0 15.0 15.0 15.0 15.0 15.0 15.0 15.0 15.0

GFSGL_sfc_vis_069.txt.gz
Visibility
15.0 15.0 15.0 15.0 15.0 15.0 15.0 15.0 15.0 15.0 15.0 15.0 15.0 15.0 15.0 15.0 15.0 15.0 15.0 15.0 15.0 15.0 15.0 15.0 12.4 8.8 15.0 15.0 15.0 11.9 9.0 3.1 0.1 15.0 15.0 15.0 15.0 15.0 15.0 15.0 15.0 15.0 15.0
15.0 15.0 15.0 15.0 15.0 15.0 15.0 15.0 15.0 15.0 15.0 15.0 15.0 15.0 15.0 15.0 15.0 15.0 15.0 15.0 15.0 15.0 15.0 15.0 15.0 15.0 15.0 4.5 15.0 5.2 0.1 0.2 14.2 13.3 15.0 15.0 15.0 15.0 15.0 15.0 15.0 15.0 15.0
15.0 15.0 15.0 15.0 15.0 15.0 15.0 15.0 15.0 15.0 15.0 15.0 15.0 15.0 15.0 15.0 15.0 15.0 15.0 15.0 15.0 15.0 15.0 15.0 15.0 15.0 7.1 15.0 6.8 0.1 1.3 15.0 13.5 13.7 15.0 15.0 14.1 15.0 15.0 15.0 15.0 15.0 14.2
15.0 15.0 15.0 15.0 15.0 15.0 15.0 15.0 15.0 15.0 15.0 15.0 15.0 15.0 15.0 15.0 15.0 15.0 15.0 15.0 15.0 15.0 15.0 15.0 15.0 13.3 9.1 7.0 15.0 10.3 3.6 15.0 15.0 15.0 15.0 15.0 15.0 15.0 15.0 15.0 15.0 15.0 15.0
15.0 15.0 15.0 15.0 15.0 15.0 15.0 15.0 15.0 15.0 15.0 15.0 15.0 15.0 15.0 15.0 15.0 15.0 15.0 15.0 15.0 15.0 15.0 15.0 15.0 15.0 2.3 15.0 15.0 14.4 14.8 15.0 13.1 15.0 15.0 15.0 15.0 0.1 15.0 15.0 15.0 15.0 15.0
15.0 15.0 15.0 15.0 15.0 15.0 15.0 15.0 15.0 15.0 15.0 15.0 15.0 15.0 15.0 15.0 15.0 15.0 15.0 15.0 15.0 15.0 15.0 15.0 15.0 1.0 0.2 0.5 0.8 14.8 14.2 15.0 15.0 15.0 15.0 15.0 15.0 15.0 15.0 15.0 15.0 15.0 15.0
15.0 15.0 15.0 15.0 15.0 15.0 15.0 15.0 15.0 15.0 15.0 15.0 15.0 15.0 15.0 15.0 15.0 15.0 15.0 15.0 15.0 15.0 15.0 15.0 15.0 15.0 0.0 4.7 0.0 0.1 0.1 15.0 15.0 14.5 15.0 15.0 15.0 15.0 15.0 15.0 15.0 15.0 15.0
15.0 15.0 15.0 15.0 15.0 15.0 15.0 15.0 15.0 15.0 15.0 15.0 15.0 15.0 15.0 15.0 15.0 15.0 15.0 15.0 15.0 15.0 15.0 15.0 15.0 15.0 7.0 9.0 0.2 0.1 14.9 15.0 11.1 15.0 15.0 15.0 15.0 15.0 15.0 15.0 15.0 15.0 15.0
15.0 15.0 15.0 15.0 15.0 15.0 15.0 15.0 15.0 15.0 15.0 15.0 15.0 15.0 15.0 15.0 15.0 15.0 15.0 15.0 15.0 15.0 15.0 15.0 15.0 15.0 0.1 0.0 15.0 3.5 15.0 0.2 0.0 0.0 2.8 15.0 2.8 1.5 15.0 15.0 15.0 15.0 15.0
15.0 15.0 15.0 15.0 15.0 15.0 15.0 15.0 15.0 15.0 15.0 15.0 15.0 15.0 15.0 15.0 15.0 15.0 15.0 15.0 15.0 15.0 15.0 15.0 0.0 0.1 0.0 0.0 9.0 15.0 14.9 2.7 15.0 15.0 1.4 0.9 0.0 0.0 0.0 8.5 15.0 15.0 15.0
15.0 15.0 15.0 15.0 15.0 15.0 15.0 15.0 15.0 15.0 15.0 15.0 15.0 15.0 15.0 15.0 15.0 0.1 0.0 3.4 15.0 15.0 15.0 10.5 0.5 0.0 0.0 0.0 0.2 14.6 1.7 11.5 0.1 15.0 15.0 15.0 14.3 0.1 1.5 15.0 15.0 15.0 15.0
15.0 15.0 15.0 15.0 15.0 15.0 15.0 15.0 15.0 15.0 15.0 15.0 15.0 15.0 15.0 15.0 0.0 0.0 0.0 0.0 0.1 9.7 15.0 15.0 8.1 0.0 0.0 0.0 0.1 0.0 0.0 0.1 15.0 15.0 15.0 11.6 10.2 11.3 15.0 15.0 15.0 15.0 15.0
15.0 15.0 15.0 15.0 15.0 15.0 15.0 15.0 15.0 15.0 15.0 15.0 15.0 15.0 15.0 15.0 10.9 0.0 0.0 0.0 0.0 0.0 0.6 1.3 0.0 0.0 0.0 0.0 0.0 0.0 0.0 8.4 15.0 15.0 15.0 15.0 15.0 15.0 15.0 15.0 15.0 15.0 15.0
15.0 15.0 15.0 15.0 15.0 15.0 15.0 15.0 15.0 15.0 15.0 15.0 15.0 15.0 15.0 15.0 15.0 15.0 15.0 13.2 0.0 0.0 0.0 0.0 0.0 0.1 0.1 0.1 0.0 0.0 15.0 15.0 15.0 15.0 15.0 15.0 15.0 15.0 15.0 15.0 15.0 15.0 15.0
15.0 15.0 15.0 15.0 15.0 15.0 15.0 15.0 15.0 15.0 15.0 15.0 15.0 15.0 15.0 15.0 15.0 8.6 0.8 8.4 0.1 0.0 0.0 0.0 0.0 0.0 0.0 0.0 0.1 0.2 0.1 0.1 15.0 15.0 15.0 15.0 15.0 15.0 15.0 15.0 15.0 15.0 15.0
15.0 15.0 15.0 15.0 15.0 15.0 15.0 15.0 0.0 0.1 3.4 4.8 12.3 2.5 11.5 0.0 0.0 0.0 0.0 0.0 0.0 0.0 0.1 0.3 0.1 0.1 0.2 0.2 0.1 0.1 0.1 0.1 15.0 14.0 15.0 15.0 15.0 15.0 15.0 15.0 15.0 15.0 15.0
15.0 15.0 15.0 15.0 15.0 15.0 15.0 15.0 15.0 0.1 0.1 0.0 0.0 0.0 0.0 0.1 0.0 0.0 0.0 0.0 0.0 0.0 0.6 3.3 0.6 0.3 0.1 0.4 4.8 1.8 0.1 4.9 13.1 5.7 15.0 15.0 15.0 15.0 3.7 15.0 15.0 15.0 15.0
14.4 13.8 15.0 15.0 15.0 15.0 15.0 15.0 15.0 15.0 15.0 15.0 0.1 0.0 0.0 0.1 0.1 0.1 0.0 0.0 0.0 0.0 3.5 14.7 5.7 15.0 15.0 15.0 15.0 15.0 15.0 15.0 13.7 13.5 11.7 15.0 14.2 8.2 9.0 15.0 15.0 15.0 15.0
13.1 7.2 15.0 15.0 15.0 15.0 15.0 15.0 15.0 15.0 15.0 7.7 0.1 0.0 0.0 0.0 0.0 0.0 0.0 1.5 3.4 6.5 6.8 8.6 4.8 15.0 15.0 15.0 15.0 15.0 15.0 15.0 12.0 15.0 15.0 15.0 15.0 15.0 15.0 15.0 2.1 0.0 0.1
14.9 15.0 8.4 15.0 13.9 15.0 15.0 15.0 15.0 15.0 13.6 0.2 0.3 0.1 0.0 0.0 0.0 0.0 0.1 11.2 5.3 5.3 2.8 5.8 13.9 15.0 15.0 15.0 15.0 15.0 15.0 5.6 15.0 15.0 15.0 15.0 15.0 15.0 15.0 15.0 15.0 15.0 15.0
15.0 15.0 14.4 14.8 15.0 15.0 15.0 15.0 15.0 15.0 15.0 15.0 0.2 0.5 0.0 0.2 0.1 0.1 1.0 6.2 8.3 4.0 5.0 15.0 15.0 15.0 15.0 15.0 15.0 15.0 15.0 15.0 15.0 15.0 15.0 15.0 15.0 15.0 15.0 15.0 15.0 15.0 15.0
5.6 12.6 14.7 12.6 12.5 15.0 15.0 15.0 15.0 15.0 15.0 11.0 0.2 0.0 0.0 10.7 5.1 1.6 1.7 1.0 4.0 12.6 15.0 15.0 15.0 15.0 15.0 15.0 15.0 15.0 15.0 15.0 15.0 15.0 15.0 15.0 15.0 15.0 15.0 15.0 15.0 15.0 4.7
2.3 3.1 7.3 4.7 3.5 0.1 8.2 15.0 15.0 15.0 15.0 15.0 15.0 15.0 15.0 0.5 2.0 0.1 0.1 0.2 15.0 15.0 15.0 15.0 15.0 15.0 15.0 15.0 15.0 15.0 15.0 15.0 15.0 15.0 15.0 15.0 15.0 15.0 15.0 15.0 15.0 15.0 15.0
10.3 15.0 15.0 15.0 13.7 15.0 2.2 1.5 3.1 2.7 13.5 0.7 2.7 0.5 0.2 0.3 0.2 1.4 15.0 15.0 15.0 15.0 15.0 15.0 11.5 15.0 15.0 15.0 15.0 15.0 15.0 15.0 15.0 15.0 15.0 15.0 15.0 15.0 15.0 15.0 15.0 15.0 15.0
13.9 12.9 15.0 15.0 15.0 15.0 15.0 15.0 14.4 15.0 14.5 4.5 1.1 1.3 2.1 7.0 15.0 12.0 10.0 14.6 14.3 15.0 15.0 15.0 15.0 15.0 15.0 15.0 15.0 15.0 0.2 2.4 10.3 15.0 15.0 15.0 15.0 15.0 15.0 15.0 15.0 15.0 15.0
15.0 12.6 14.0 15.0 15.0 15.0 15.0 15.0 15.0 15.0 15.0 15.0 15.0 15.0 15.0 15.0 15.0 15.0 15.0 15.0 15.0 15.0 15.0 15.0 15.0 15.0 15.0 15.0 13.0 15.0 15.0 15.0 15.0 15.0 15.0 15.0 15.0 15.0 15.0 15.0 15.0 15.0 15.0

GFSGL_sfc_vis_072.txt.gz
Visibility
15.0 15.0 15.0 15.0 15.0 15.0 15.0 15.0 15.0 15.0 15.0 15.0 15.0 15.0 15.0 15.0 15.0 15.0 15.0 15.0 15.0 15.0 15.0 15.0 15.0 15.0 15.0 15.0 13.9 15.0 15.0 9.8 15.0 15.0 15.0 15.0 15.0 15.0 15.0 15.0 15.0 15.0 14.6
15.0 15.0 15.0 15.0 15.0 15.0 15.0 15.0 15.0 15.0 15.0 15.0 15.0 15.0 15.0 15.0 15.0 15.0 15.0 15.0 15.0 15.0 15.0 15.0 15.0 15.0 15.0 15.0 15.0 7.6 8.1 4.2 0.8 0.9 15.0 8.0 15.0 15.0 15.0 15.0 15.0 15.0 15.0
15.0 15.0 15.0 15.0 15.0 15.0 15.0 15.0 15.0 15.0 15.0 15.0 15.0 15.0 15.0 15.0 15.0 15.0 15.0 15.0 15.0 15.0 15.0 15.0 15.0 15.0 15.0 6.7 15.0 6.2 15.0 6.0 0.1 0.3 15.0 13.2 15.0 15.0 15.0 15.0 15.0 15.0 6.7
15.0 15.0 15.0 15.0 15.0 15.0 15.0 15.0 15.0 15.0 15.0 15.0 15.0 15.0 15.0 15.0 15.0 15.0 15.0 15.0 15.0 15.0 15.0 15.0 15.0 15.0 15.0 15.0 15.0 10.6 0.3 0.1 0.1 2.9 15.0 3.1 13.0 0.5 15.0 15.0 15.0 15.0 15.0
15.0 15.0 15.0 15.0 15.0 15.0 15.0 15.0 15.0 15.0 15.0 15.0 15.0 15.0 15.0 15.0 15.0 15.0 15.0 15.0 15.0 15.0 15.0 15.0 15.0 15.0 15.0 12.6 10.8 9.0 4.6 15.0 0.3 0.4 13.8 0.9 0.2 0.2 12.1 15.0 15.0 15.0 15.0
15.0 15.0 15.0 15.0 15.0 15.0 15.0 15.0 15.0 15.0 15.0 15.0 15.0 15.0 15.0 15.0 15.0 15.0 15.0 15.0 15.0 15.0 15.0 15.0 15.0 15.0 0.5 0.1 0.0 0.0 0.5 15.0 9.3 0.7 15.0 8.2 15.0 14.1 15.0 15.0 6.7 0.7 15.0
15.0 15.0 15.0 15.0 15.0 15.0 15.0 15.0 15.0 15.0 15.0 15.0 15.0 15.0 15.0 15.0 15.0 15.0 15.0 15.0 15.0 15.0 15.0 15.0 15.0 15.0 4.4 15.0 2.0 0.0 0.0 0.0 7.0 4.4 13.4 15.0 15.0 15.0 15.0 15.0 15.0 15.0 15.0
15.0 15.0 15.0 15.0 15.0 15.0 15.0 15.0 15.0 15.0 15.0 15.0 15.0 15.0 15.0 15.0 15.0 15.0 15.0 15.0 15.0 15.0 15.0 15.0 15.0 15.0 15.0 6.9 15.0 1.8 0.0 0.1 0.3 3.3 3.1 15.0 15.0 15.0 15.0 15.0 15.0 15.0 15.0
15.0 15.0 15.0 15.0 15.0 15.0 15.0 15.0 15.0 15.0 15.0 15.0 15.0 15.0 15.0 15.0 15.0 15.0 15.0 15.0 15.0 15.0 15.0 15.0 15.0 15.0 0.1 0.0 0.1 15.0 0.3 0.1 0.0 0.0 0.1 2.9 3.1 2.9 15.0 15.0 15.0 15.0 15.0
15.0 15.0 15.0 15.0 15.0 15.0 15.0 15.0 15.0 15.0 15.0 15.0 15.0 15.0 15.0 15.0 15.0 15.0 15.0 15.0 15.0 15.0 15.0 15.0 0.0 0.1 0.0 0.0 0.0 15.0 0.0 0.1 0.1 0.0 0.1 0.3 0.0 0.0 0.0 15.0 15.0 15.0 15.0
15.0 15.0 15.0 15.0 15.0 15.0 15.0 15.0 15.0 15.0 15.0 15.0 15.0 15.0 15.0 15.0 15.0 15.0 15.0 15.0 15.0 15.0 15.0 15.0 15.0 0.0 0.0 0.0 0.0 15.0 9.7 11.4 0.1 15.0 4.3 15.0 0.1 0.2 5.1 15.0 15.0 15.0 15.0
15.0 15.0 15.0 15.0 15.0 15.0 15.0 15.0 15.0 15.0 15.0 15.0 15.0 15.0 15.0 15.0 0.0 0.1 0.4 0.0 0.1 13.1 15.0 15.0 8.1 0.0 0.0 0.0 0.0 0.0 0.0 0.1 12.3 14.6 13.9 0.3 0.2 6.0 15.0 15.0 15.0 15.0 15.0
15.0 15.0 15.0 15.0 15.0 15.0 15.0 15.0 15.0 15.0 15.0 15.0 15.0 15.0 15.0 15.0 14.5 0.0 0.0 0.0 0.0 0.1 0.2 1.3 0.0 0.0 0.0 0.0 0.0 0.0 0.0 13.9 14.5 15.0 4.8 7.5 15.0 15.0 15.0 15.0 15.0 15.0 15.0
15.0 15.0 15.0 15.0 15.0 15.0 15.0 15.0 15.0 15.0 15.0 15.0 15.0 15.0 15.0 15.0 15.0 15.0 3.5 0.1 0.0 0.1 0.1 0.1 0.0 0.0 0.0 0.0 0.0 0.0 5.6 15.0 15.0 5.2 15.0 15.0 15.0 15.0 15.0 15.0 15.0 15.0 15.0
15.0 15.0 15.0 15.0 15.0 15.0 15.0 15.0 15.0 15.0 15.0 15.0 15.0 15.0 15.0 15.0 15.0 15.0 8.6 15.0 15.0 0.7 0.0 0.0 0.0 0.1 0.1 0.0 0.1 0.1 0.1 0.1 9.5 15.0 15.0 15.0 15.0 15.0 15.0 15.0 15.0 15.0 15.0
15.0 15.0 15.0 15.0 15.0 15.0 15.0 15.0 0.4 15.0 15.0 15.0 15.0 15.0 15.0 4.6 4.7 0.0 0.0 0.0 0.0 0.0 0.0 0.0 0.0 10.1 10.6 0.1 0.0 0.0 0.1 0.1 7.6 14.4 15.0 15.0 15.0 15.0 15.0 15.0 15.0 15.0 15.0
15.0 15.0 15.0 15.0 15.0 15.0 15.0 15.0 15.0 0.1 0.1 0.2 0.6 0.1 0.0 0.1 0.0 0.0 0.0 0.0 0.0 0.0 0.1 0.1 0.1 0.3 15.0 14.6 0.9 0.4 0.1 6.8 9.5 6.2 15.0 15.0 15.0 15.0 3.6 15.0 15.0 15.0 15.0
10.4 11.2 15.0 15.0 15.0 15.0 15.0 15.0 15.0 15.0 15.0 5.0 0.1 0.1 0.0 0.1 0.0 0.1 0.1 0.0 0.6 0.0 0.1 11.2 0.5 13.8 5.5 15.0 15.0 15.0 15.0 0.4 6.0 9.9 4.3 13.4 14.7 13.7 13.5 15.0 15.0 15.0 15.0
10.6 14.9 15.0 15.0 15.0 15.0 15.0 15.0 15.0 15.0 15.0 15.0 15.0 0.1 0.1 0.0 0.1 0.1 0.1 1.3 15.0 0.0 0.1 15.0 8.7 2.8 0.4 0.9 12.4 9.3 9.5 13.1 9.5 5.6 7.6 12.9 15.0 12.7 15.0 13.1 2.7 0.1 2.1
14.0 15.0 11.7 15.0 15.0 15.0 15.0 15.0 15.0 15.0 15.0 15.0 15.0 15.0 0.1 0.0 0.0 0.0 0.0 0.1 15.0 1.1 14.8 13.4 6.7 10.6 4.5 15.0 13.8 12.2 0.5 4.1 10.1 9.8 9.9 15.0 14.4 6.2 13.2 15.0 15.0 15.0 15.0
15.0 15.0 14.4 15.0 15.0 15.0 15.0 15.0 15.0 15.0 15.0 15.0 15.0 14.8 0.0 0.1 0.1 0.1 0.1 0.2 15.0 15.0 15.0 3.7 15.0 5.3 15.0 15.0 15.0 15.0 15.0 15.0 15.0 15.0 15.0 15.0 15.0 15.0 15.0 15.0 15.0 15.0 15.0
15.0 15.0 15.0 15.0 15.0 15.0 14.9 15.0 15.0 15.0 15.0 15.0 15.0 1.4 0.0 0.1 13.8 6.5 0.2 5.1 15.0 12.2 6.0 14.1 5.8 15.0 15.0 15.0 15.0 15.0 15.0 15.0 15.0 15.0 15.0 15.0 15.0 15.0 15.0 15.0 15.0 1.2 4.8
11.6 15.0 15.0 15.0 15.0 4.4 9.0 15.0 15.0 15.0 15.0 15.0 15.0 11.7 0.0 0.2 6.4 0.2 0.1 0.2 13.7 11.8 6.0 12.9 15.0 15.0 15.0 15.0 15.0 15.0 15.0 15.0 15.0 15.0 15.0 15.0 15.0 15.0 15.0 15.0 15.0 15.0 15.0
11.5 14.9 9.4 9.8 13.0 15.0 15.0 15.0 15.0 0.2 13.3 15.0 15.0 15.0 3.0 0.1 0.1 0.1 0.1 0.1 0.2 1.3 14.9 15.0 15.0 15.0 15.0 15.0 13.5 15.0 15.0 15.0 15.0 15.0 15.0 15.0 15.0 15.0 15.0 15.0 15.0 15.0 15.0
14.9 8.7 12.1 15.0 14.9 1.4 1.6 14.5 15.0 6.6 12.9 15.0 15.0 0.2 0.6 0.5 0.2 0.2 0.4 1.4 4.3 15.0 15.0 15.0 15.0 13.8 9.8 10.1 15.0 15.0 0.0 0.4 10.1 15.0 15.0 15.0 15.0 15.0 15.0 15.0 15.0 15.0 15.0
15.0 15.0 15.0 13.6 13.0 15.0 15.0 15.0 15.0 15.0 0.4 0.6 0.8 0.8 5.7 6.4 6.2 12.6 7.2 9.3 15.0 15.0 15.0 15.0 15.0 7.3 15.0 15.0 15.0 15.0 15.0 15.0 15.0 15.0 15.0 15.0 15.0 15.0 15.0 15.0 15.0 15.0 15.0

GFSGL_sfc_vis_075.txt.gz
Visibility
15.0 15.0 15.0 15.0 15.0 15.0 15.0 15.0 15.0 15.0 15.0 15.0 15.0 15.0 15.0 15.0 15.0 15.0 15.0 15.0 15.0 15.0 15.0 15.0 15.0 15.0 15.0 15.0 15.0 15.0 15.0 15.0 15.0 15.0 15.0 15.0 15.0 15.0 15.0 13.4 15.0 15.0 7.7
15.0 15.0 15.0 15.0 15.0 15.0 15.0 15.0 15.0 15.0 15.0 15.0 15.0 15.0 15.0 15.0 15.0 15.0 15.0 15.0 15.0 15.0 15.0 15.0 15.0 15.0 15.0 15.0 15.0 15.0 15.0 15.0 13.9 15.0 15.0 15.0 15.0 15.0 15.0 15.0 15.0 15.0 15.0
7.4 11.8 15.0 15.0 15.0 15.0 15.0 15.0 15.0 15.0 15.0 15.0 15.0 15.0 15.0 15.0 15.0 15.0 15.0 15.0 15.0 15.0 15.0 15.0 15.0 15.0 15.0 15.0 15.0 15.0 15.0 15.0 12.0 0.2 2.7 15.0 15.0 14.4 15.0 15.0 14.3 15.0 15.0
15.0 15.0 15.0 15.0 15.0 15.0 15.0 15.0 15.0 15.0 15.0 15.0 15.0 15.0 15.0 15.0 15.0 15.0 15.0 15.0 15.0 15.0 15.0 15.0 15.0 15.0 15.0 15.0 15.0 15.0 15.0 15.0 0.7 0.2 15.0 15.0 12.2 15.0 15.0 15.0 15.0 15.0 15.0
15.0 15.0 15.0 15.0 15.0 15.0 15.0 15.0 15.0 15.0 15.0 15.0 15.0 15.0 15.0 15.0 15.0 15.0 15.0 15.0 15.0 15.0 15.0 15.0 15.0 15.0 15.0 15.0 10.0 15.0 14.6 4.2 11.3 15.0 15.0 15.0 0.1 0.1 1.0 15.0 15.0 15.0 15.0
15.0 15.0 15.0 15.0 15.0 15.0 15.0 15.0 15.0 15.0 15.0 15.0 15.0 15.0 15.0 15.0 15.0 15.0 15.0 15.0 15.0 15.0 15.0 15.0 15.0 15.0 15.0 14.8 0.2 0.0 0.1 14.8 11.5 5.2 15.0 15.0 15.0 15.0 15.0 15.0 15.0 15.0 15.0
15.0 15.0 15.0 15.0 15.0 15.0 15.0 15.0 15.0 15.0 15.0 15.0 15.0 15.0 15.0 15.0 15.0 15.0 15.0 15.0 15.0 15.0 15.0 15.0 15.0 15.0 4.4 15.0 15.0 0.1 0.0 0.0 0.0 10.7 15.0 15.0 15.0 15.0 15.0 15.0 15.0 15.0 15.0
15.0 15.0 15.0 15.0 15.0 15.0 15.0 15.0 15.0 15.0 15.0 15.0 15.0 15.0 15.0 15.0 15.0 15.0 15.0 15.0 15.0 15.0 15.0 15.0 15.0 15.0 15.0 9.0 15.0 15.0 15.0 13.1 0.1 0.1 9.1 11.8 15.0 15.0 15.0 15.0 15.0 15.0 15.0
15.0 15.0 15.0 15.0 15.0 15.0 15.0 15.0 15.0 15.0 15.0 15.0 15.0 15.0 15.0 15.0 15.0 15.0 12.7 15.0 15.0 15.0 15.0 15.0 15.0 15.0 15.0 0.0 15.0 15.0 15.0 14.3 0.0 0.0 0.0 0.0 0.1 0.3 13.0 15.0 15.0 15.0 15.0
15.0 15.0 15.0 15.0 15.0 15.0 15.0 15.0 15.0 15.0 15.0 15.0 15.0 15.0 15.0 15.0 15.0 15.0 15.0 15.0 15.0 15.0 15.0 15.0 1.0 0.1 0.5 0.0 7.3 15.0 15.0 15.0 0.0 1.5 3.3 0.8 0.9 2.3 0.0 15.0 15.0 15.0 15.0
15.0 15.0 15.0 15.0 15.0 15.0 15.0 15.0 15.0 15.0 15.0 15.0 15.0 15.0 15.0 15.0 15.0 15.0 15.0 15.0 15.0 15.0 15.0 15.0 15.0 0.0 0.0 0.0 0.0 0.0 9.7 11.4 1.1 13.8 15.0 2.4 1.5 11.4 15.0 15.0 15.0 15.0 15.0
15.0 15.0 15.0 15.0 15.0 15.0 15.0 15.0 15.0 15.0 15.0 15.0 15.0 15.0 15.0 15.0 5.8 5.8 7.5 0.9 9.2 15.0 15.0 15.0 15.0 0.0 0.0 0.0 0.0 0.0 0.0 0.1 15.0 15.0 15.0 0.9 0.1 1.6 15.0 15.0 15.0 15.0 15.0
15.0 15.0 15.0 15.0 15.0 15.0 15.0 15.0 15.0 15.0 15.0 15.0 15.0 15.0 15.0 15.0 14.5 0.0 0.0 0.0 0.0 1.2 15.0 12.4 0.0 0.0 0.0 0.0 0.0 0.0 0.0 13.9 15.0 15.0 14.8 14.8 10.4 15.0 15.0 15.0 15.0 15.0 15.0
15.0 15.0 15.0 15.0 15.0 15.0 15.0 15.0 15.0 15.0 15.0 15.0 15.0 15.0 15.0 15.0 15.0 15.0 15.0 13.4 0.3 0.1 15.0 3.0 7.1 0.1 0.0 0.1 0.0 0.0 12.9 15.0 15.0 15.0 15.0 15.0 13.6 15.0 15.0 15.0 15.0 15.0 7.7
15.0 15.0 15.0 15.0 15.0 15.0 15.0 15.0 15.0 15.0 15.0 15.0 15.0 15.0 15.0 15.0 15.0 15.0 15.0 15.0 15.0 15.0 15.0 15.0 15.0 0.1 8.7 0.0 0.1 0.1 9.0 12.2 15.0 15.0 15.0 13.4 15.0 15.0 15.0 15.0 15.0 15.0 5.6
15.0 15.0 15.0 15.0 15.0 15.0 15.0 15.0 12.9 15.0 15.0 15.0 15.0 15.0 15.0 15.0 15.0 15.0 15.0 0.5 0.0 0.0 0.1 15.0 15.0 15.0 15.0 0.1 0.0 0.0 0.1 0.1 15.0 15.0 15.0 15.0 15.0 15.0 15.0 15.0 15.0 15.0 14.1
15.0 15.0 15.0 15.0 15.0 15.0 15.0 15.0 15.0 0.4 1.1 15.0 15.0 15.0 15.0 14.5 0.1 0.1 0.1 0.0 0.0 0.0 0.1 15.0 15.0 15.0 15.0 15.0 14.5 3.1 14.5 15.0 15.0 15.0 15.0 15.0 15.0 6.3 3.6 15.0 15.0 15.0 15.0
15.0 13.9 15.0 15.0 15.0 12.2 14.6 15.0 15.0 15.0 15.0 15.0 0.1 0.2 0.0 0.0 0.0 0.0 0.0 0.0 0.2 0.1 14.8 15.0 15.0 15.0 15.0 14.9 15.0 15.0 15.0 15.0 15.0 15.0 15.0 14.2 7.0 15.0 15.0 9.1 15.0 15.0 15.0
15.0 14.5 15.0 15.0 15.0 15.0 15.0 15.0 15.0 15.0 15.0 15.0 15.0 0.0 0.2 0.1 0.1 0.1 0.1 1.1 15.0 15.0 15.0 15.0 15.0 15.0 15.0 5.1 15.0 15.0 15.0 15.0 12.9 15.0 14.4 5.4 15.0 15.0 7.9 7.7 8.8 7.5 4.5
15.0 15.0 15.0 14.5 15.0 15.0 15.0 15.0 15.0 15.0 15.0 15.0 15.0 15.0 15.0 0.1 0.0 0.1 0.1 4.1 13.9 15.0 15.0 15.0 15.0 15.0 9.2 13.2 15.0 15.0 15.0 11.6 15.0 15.0 15.0 15.0 12.3 3.7 15.0 15.0 15.0 15.0 15.0
15.0 15.0 14.4 15.0 15.0 15.0 15.0 15.0 14.6 14.9 12.2 15.0 15.0 15.0 4.7 15.0 15.0 15.0 15.0 15.0 15.0 15.0 15.0 15.0 15.0 14.6 6.0 12.5 15.0 15.0 15.0 15.0 15.0 15.0 11.3 12.3 4.4 15.0 10.9 10.6 15.0 14.7 8.1
15.0 15.0 15.0 15.0 15.0 15.0 15.0 15.0 15.0 15.0 15.0 15.0 15.0 9.6 0.1 0.1 15.0 15.0 15.0 15.0 15.0 15.0 15.0 14.5 12.6 5.0 15.0 15.0 15.0 15.0 11.7 15.0 9.9 11.8 11.2 5.6 9.9 15.0 15.0 15.0 15.0 5.4 12.9
15.0 15.0 15.0 15.0 15.0 15.0 9.0 14.7 15.0 15.0 15.0 15.0 15.0 15.0 1.9 0.2 0.2 15.0 15.0 15.0 15.0 15.0 13.8 7.1 8.4 13.8 15.0 15.0 15.0 15.0 15.0 8.7 10.4 15.0 15.0 15.0 15.0 15.0 15.0 15.0 15.0 15.0 15.0
9.0 13.7 15.0 15.0 15.0 15.0 15.0 15.0 15.0 0.3 15.0 15.0 15.0 15.0 15.0 15.0 15.0 1.2 0.2 3.5 2.9 1.1 5.7 6.2 3.3 14.1 15.0 15.0 15.0 15.0 15.0 15.0 15.0 15.0 15.0 15.0 15.0 11.8 13.7 13.9 15.0 15.0 15.0
3.5 5.9 15.0 15.0 14.2 15.0 15.0 15.0 15.0 15.0 15.0 15.0 15.0 14.2 0.1 0.1 0.1 0.1 0.1 0.1 0.3 14.1 4.8 13.0 15.0 15.0 15.0 15.0 15.0 15.0 0.1 0.0 15.0 14.8 15.0 15.0 15.0 15.0 15.0 15.0 15.0 15.0 15.0
12.9 3.6 1.8 5.8 12.9 14.1 15.0 15.0 15.0 15.0 15.0 15.0 15.0 15.0 15.0 0.3 0.1 0.2 0.3 15.0 15.0 15.0 12.4 11.2 9.6 15.0 15.0 15.0 10.3 0.1 5.8 15.0 15.0 15.0 15.0 15.0 15.0 15.0 15.0 15.0 15.0 15.0 15.0